Time,TemperatureF,DewpointF,PressureIn,WindDirection,WindDirectionDegrees,WindSpeedMPH,WindSpeedGustMPH,Humidity,HourlyPrecipIn,Conditions,Clouds,dailyrainin,SoftwareType,DateUTC
2013-05-25 00:12:00,77.3,33.0,29.76,West,263,0.0,2.0,20,0.00,,,0.00,weatherlink.com 1.10,2013-05-25 07:12:00,
2013-05-25 00:27:00,77.3,33.0,29.76,West,267,1.0,3.0,20,0.00,,,0.00,weatherlink.com 1.10,2013-05-25 07:27:00,
2013-05-25 00:42:00,76.8,33.0,29.76,West,266,1.0,4.0,20,0.00,,,0.00,weatherlink.com 1.10,2013-05-25 07:42:00,
2013-05-25 00:57:00,76.3,32.0,29.76,WSW,248,1.0,4.0,20,0.00,,,0.00,weatherlink.com 1.10,2013-05-25 07:57:00,
2013-05-25 01:12:00,75.2,34.0,29.76,SW,236,0.0,3.0,22,0.00,,,0.00,weatherlink.com 1.10,2013-05-25 08:12:00,
2013-05-25 01:27:00,75.6,33.0,29.75,SW,214,0.0,5.0,21,0.00,,,0.00,weatherlink.com 1.10,2013-05-25 08:27:00,
2013-05-25 01:42:00,75.7,33.0,29.75,WSW,252,2.0,3.0,21,0.00,,,0.00,weatherlink.com 1.10,2013-05-25 08:42:00,
2013-05-25 01:57:00,75.2,34.0,29.75,South,191,1.0,5.0,22,0.00,,,0.00,weatherlink.com 1.10,2013-05-25 08:57:00,
2013-05-25 02:12:00,76.1,35.0,29.75,SW,229,1.0,6.0,22,0.00,,,0.00,weatherlink.com 1.10,2013-05-25 09:12:00,
2013-05-25 02:27:00,75.8,34.0,29.75,SW,236,2.0,5.0,22,0.00,,,0.00,weatherlink.com 1.10,2013-05-25 09:27:00,
2013-05-25 02:42:00,74.6,34.0,29.75,SW,222,1.0,4.0,23,0.00,,,0.00,weatherlink.com 1.10,2013-05-25 09:42:00,
2013-05-25 02:57:00,73.4,33.0,29.75,SSE,159,0.0,2.0,23,0.00,,,0.00,weatherlink.com 1.10,2013-05-25 09:57:00,
2013-05-25 03:12:00,72.5,34.0,29.76,SE,146,2.0,5.0,24,0.00,,,0.00,weatherlink.com 1.10,2013-05-25 10:12:00,
2013-05-25 03:27:00,72.6,34.0,29.76,ESE,116,2.0,5.0,24,0.00,,,0.00,weatherlink.com 1.10,2013-05-25 10:27:00,
2013-05-25 03:42:00,72.4,34.0,29.76,ESE,118,1.0,6.0,24,0.00,,,0.00,weatherlink.com 1.10,2013-05-25 10:42:00,
2013-05-25 03:57:00,71.8,33.0,29.76,SE,131,0.0,2.0,24,0.00,,,0.00,weatherlink.com 1.10,2013-05-25 10:57:00,
2013-05-25 04:12:00,71.2,34.0,29.76,WSW,246,0.0,4.0,25,0.00,,,0.00,weatherlink.com 1.10,2013-05-25 11:12:00,
2013-05-25 04:27:00,69.9,32.0,29.76,ESE,120,3.0,4.0,25,0.00,,,0.00,weatherlink.com 1.10,2013-05-25 11:27:00,
2013-05-25 04:42:00,69.6,32.0,29.77,ESE,112,2.0,2.0,25,0.00,,,0.00,weatherlink.com 1.10,2013-05-25 11:42:00,
2013-05-25 04:57:00,70.1,33.0,29.77,SE,128,2.0,5.0,25,0.00,,,0.00,weatherlink.com 1.10,2013-05-25 11:57:00,
2013-05-25 05:12:00,69.7,32.0,29.78,SSE,163,2.0,7.0,25,0.00,,,0.00,weatherlink.com 1.10,2013-05-25 12:12:00,
2013-05-25 05:27:00,69.1,32.0,29.78,SE,145,5.0,6.0,25,0.00,,,0.00,weatherlink.com 1.10,2013-05-25 12:27:00,
2013-05-25 05:42:00,69.6,32.0,29.79,SE,143,3.0,7.0,25,0.00,,,0.00,weatherlink.com 1.10,2013-05-25 12:42:00,
2013-05-25 05:58:00,72.2,32.0,29.79,SE,143,4.0,7.0,23,0.00,,,0.00,weatherlink.com 1.10,2013-05-25 12:58:00,
2013-05-25 06:13:00,73.3,32.0,29.79,SSW,193,3.0,8.0,22,0.00,,,0.00,weatherlink.com 1.10,2013-05-25 13:13:00,
2013-05-25 06:28:00,74.7,32.0,29.79,South,181,4.0,7.0,21,0.00,,,0.00,weatherlink.com 1.10,2013-05-25 13:28:00,
2013-05-25 06:43:00,76.2,33.0,29.80,SSE,157,2.0,8.0,21,0.00,,,0.00,weatherlink.com 1.10,2013-05-25 13:43:00,
2013-05-25 06:58:00,76.9,33.0,29.80,SSE,157,4.0,8.0,20,0.00,,,0.00,weatherlink.com 1.10,2013-05-25 13:58:00,
2013-05-25 07:13:00,77.6,33.0,29.80,East,100,3.0,8.0,20,0.00,,,0.00,weatherlink.com 1.10,2013-05-25 14:13:00,
2013-05-25 07:28:00,78.6,33.0,29.80,SSE,167,3.0,7.0,19,0.00,,,0.00,weatherlink.com 1.10,2013-05-25 14:28:00,
2013-05-25 07:43:00,79.6,34.0,29.80,SSE,155,4.0,8.0,19,0.00,,,0.00,weatherlink.com 1.10,2013-05-25 14:43:00,
2013-05-25 07:58:00,79.6,34.0,29.80,East,98,9.0,10.0,19,0.00,,,0.00,weatherlink.com 1.10,2013-05-25 14:58:00,
2013-05-25 08:13:00,79.5,32.0,29.81,ESE,115,8.0,10.0,18,0.00,,,0.00,weatherlink.com 1.10,2013-05-25 15:13:00,
2013-05-25 08:28:00,80.1,33.0,29.81,ESE,110,7.0,9.0,18,0.00,,,0.00,weatherlink.com 1.10,2013-05-25 15:28:00,
2013-05-25 08:43:00,79.9,34.0,29.81,East,98,6.0,11.0,19,0.00,,,0.00,weatherlink.com 1.10,2013-05-25 15:43:00,
2013-05-25 08:58:00,81.1,35.0,29.81,ESE,120,6.0,10.0,19,0.00,,,0.00,weatherlink.com 1.10,2013-05-25 15:58:00,
2013-05-25 09:13:00,82.5,35.0,29.81,East,90,3.0,8.0,18,0.00,,,0.00,weatherlink.com 1.10,2013-05-25 16:13:00,
2013-05-25 09:28:00,83.8,35.0,29.80,East,93,4.0,10.0,17,0.00,,,0.00,weatherlink.com 1.10,2013-05-25 16:28:00,
2013-05-25 09:43:00,84.3,33.0,29.80,ESE,122,10.0,10.0,16,0.00,,,0.00,weatherlink.com 1.10,2013-05-25 16:43:00,
2013-05-25 09:58:00,85.6,33.0,29.80,SW,219,2.0,10.0,15,0.00,,,0.00,weatherlink.com 1.10,2013-05-25 16:58:00,
2013-05-25 10:13:00,85.9,28.0,29.80,SE,129,6.0,11.0,12,0.00,,,0.00,weatherlink.com 1.10,2013-05-25 17:13:00,
2013-05-25 10:28:00,86.4,24.0,29.79,SSW,210,3.0,12.0,10,0.00,,,0.00,weatherlink.com 1.10,2013-05-25 17:28:00,
2013-05-25 10:43:00,88.5,28.0,29.80,WSW,253,5.0,11.0,11,0.00,,,0.00,weatherlink.com 1.10,2013-05-25 17:43:00,
2013-05-25 10:58:00,88.0,25.0,29.80,SW,222,8.0,12.0,10,0.00,,,0.00,weatherlink.com 1.10,2013-05-25 17:58:00,
2013-05-25 11:13:00,88.2,25.0,29.80,WSW,257,6.0,11.0,10,0.00,,,0.00,weatherlink.com 1.10,2013-05-25 18:13:00,
2013-05-25 11:28:00,88.4,23.0,29.79,West,263,4.0,13.0,9,0.00,,,0.00,weatherlink.com 1.10,2013-05-25 18:28:00,
2013-05-25 11:43:00,89.5,21.0,29.79,South,169,8.0,12.0,8,0.00,,,0.00,weatherlink.com 1.10,2013-05-25 18:43:00,
2013-05-25 11:58:00,90.0,18.0,29.78,SE,144,3.0,12.0,7,0.00,,,0.00,weatherlink.com 1.10,2013-05-25 18:58:00,
2013-05-25 12:13:00,91.1,15.0,29.78,SW,225,4.0,11.0,6,0.00,,,0.00,weatherlink.com 1.10,2013-05-25 19:13:00,
2013-05-25 12:28:00,92.4,12.0,29.77,SE,136,3.0,13.0,5,0.00,,,0.00,weatherlink.com 1.10,2013-05-25 19:28:00,
2013-05-25 12:43:00,91.9,7.0,29.77,West,274,5.0,17.0,4,0.00,,,0.00,weatherlink.com 1.10,2013-05-25 19:43:00,
2013-05-25 12:58:00,91.8,6.0,29.77,West,259,5.0,14.0,4,0.00,,,0.00,weatherlink.com 1.10,2013-05-25 19:58:00,
2013-05-25 13:13:00,92.9,7.0,29.77,WSW,248,6.0,12.0,4,0.00,,,0.00,weatherlink.com 1.10,2013-05-25 20:13:00,
2013-05-25 13:29:00,93.0,1.0,29.76,West,273,7.0,13.0,3,0.00,,,0.00,weatherlink.com 1.10,2013-05-25 20:29:00,
2013-05-25 13:44:00,92.9,1.0,29.76,WSW,253,7.0,16.0,3,0.00,,,0.00,weatherlink.com 1.10,2013-05-25 20:44:00,
2013-05-25 13:59:00,92.9,1.0,29.76,WSW,238,7.0,20.0,3,0.00,,,0.00,weatherlink.com 1.10,2013-05-25 20:59:00,
2013-05-25 14:14:00,93.2,-8.0,29.76,SSW,194,6.0,14.0,2,0.00,,,0.00,weatherlink.com 1.10,2013-05-25 21:14:00,
2013-05-25 14:29:00,93.6,1.0,29.75,SW,231,10.0,12.0,3,0.00,,,0.00,weatherlink.com 1.10,2013-05-25 21:29:00,
2013-05-25 14:44:00,93.9,2.0,29.75,WSW,243,6.0,15.0,3,0.00,,,0.00,weatherlink.com 1.10,2013-05-25 21:44:00,
2013-05-25 15:00:00,94.0,2.0,29.74,West,278,8.0,17.0,3,0.00,,,0.00,weatherlink.com 1.10,2013-05-25 22:00:00,
2013-05-25 15:14:00,94.1,2.0,29.74,NW,326,1.0,12.0,3,0.00,,,0.00,weatherlink.com 1.10,2013-05-25 22:14:00,
2013-05-25 15:29:00,94.0,2.0,29.74,NW,322,1.0,12.0,3,0.00,,,0.00,weatherlink.com 1.10,2013-05-25 22:29:00,
2013-05-25 15:44:00,94.4,2.0,29.73,WSW,258,6.0,12.0,3,0.00,,,0.00,weatherlink.com 1.10,2013-05-25 22:44:00,
2013-05-25 15:59:00,94.2,2.0,29.73,SW,226,8.0,14.0,3,0.00,,,0.00,weatherlink.com 1.10,2013-05-25 22:59:00,
2013-05-25 16:14:00,93.8,2.0,29.72,WNW,301,3.0,12.0,3,0.00,,,0.00,weatherlink.com 1.10,2013-05-25 23:14:00,
2013-05-25 16:30:00,94.4,-7.0,29.72,WSW,243,8.0,12.0,2,0.00,,,0.00,weatherlink.com 1.10,2013-05-25 23:30:00,
2013-05-25 16:44:00,94.0,-7.0,29.72,SW,228,3.0,12.0,2,0.00,,,0.00,weatherlink.com 1.10,2013-05-25 23:44:00,
2013-05-25 16:59:00,93.9,2.0,29.71,SW,224,7.0,11.0,3,0.00,,,0.00,weatherlink.com 1.10,2013-05-25 23:59:00,
2013-05-25 17:14:00,93.1,13.0,29.71,SSW,207,5.0,12.0,5,0.00,,,0.00,weatherlink.com 1.10,2013-05-26 00:14:00,
2013-05-25 17:30:00,93.2,7.0,29.71,South,170,1.0,10.0,4,0.00,,,0.00,weatherlink.com 1.10,2013-05-26 00:30:00,
2013-05-25 17:45:00,92.9,7.0,29.71,WSW,242,5.0,14.0,4,0.00,,,0.00,weatherlink.com 1.10,2013-05-26 00:45:00,
2013-05-25 18:00:00,92.1,7.0,29.71,SW,217,4.0,12.0,4,0.00,,,0.00,weatherlink.com 1.10,2013-05-26 01:00:00,
2013-05-25 18:15:00,91.7,12.0,29.71,SW,233,4.0,10.0,5,0.00,,,0.00,weatherlink.com 1.10,2013-05-26 01:15:00,
2013-05-25 18:30:00,90.9,11.0,29.71,West,273,2.0,9.0,5,0.00,,,0.00,weatherlink.com 1.10,2013-05-26 01:30:00,
2013-05-25 18:45:00,89.7,10.0,29.71,South,191,1.0,9.0,5,0.00,,,0.00,weatherlink.com 1.10,2013-05-26 01:45:00,
2013-05-25 19:00:00,88.6,13.0,29.72,West,259,3.0,8.0,6,0.00,,,0.00,weatherlink.com 1.10,2013-05-26 02:00:00,
2013-05-25 19:15:00,87.8,13.0,29.72,SW,215,4.0,4.0,6,0.00,,,0.00,weatherlink.com 1.10,2013-05-26 02:15:00,
2013-05-25 19:30:00,87.4,16.0,29.72,West,281,1.0,8.0,7,0.00,,,0.00,weatherlink.com 1.10,2013-05-26 02:30:00,
2013-05-25 19:45:00,87.1,16.0,29.73,West,260,6.0,6.0,7,0.00,,,0.00,weatherlink.com 1.10,2013-05-26 02:45:00,
2013-05-25 20:00:00,86.9,16.0,29.73,West,281,3.0,10.0,7,0.00,,,0.00,weatherlink.com 1.10,2013-05-26 03:00:00,
2013-05-25 20:15:00,85.7,21.0,29.73,West,264,4.0,11.0,9,0.00,,,0.00,weatherlink.com 1.10,2013-05-26 03:15:00,
2013-05-25 20:30:00,85.0,23.0,29.74,West,264,6.0,12.0,10,0.00,,,0.00,weatherlink.com 1.10,2013-05-26 03:30:00,
2013-05-25 20:46:00,84.3,22.0,29.75,WSW,257,8.0,13.0,10,0.00,,,0.00,weatherlink.com 1.10,2013-05-26 03:46:00,
2013-05-25 21:01:00,83.6,24.0,29.75,NW,316,4.0,12.0,11,0.00,,,0.00,weatherlink.com 1.10,2013-05-26 04:01:00,
2013-05-25 21:16:00,82.8,23.0,29.76,West,263,8.0,10.0,11,0.00,,,0.00,weatherlink.com 1.10,2013-05-26 04:16:00,
2013-05-25 21:31:00,82.0,25.0,29.76,West,274,7.0,13.0,12,0.00,,,0.00,weatherlink.com 1.10,2013-05-26 04:31:00,
2013-05-25 21:46:00,81.4,24.0,29.76,WNW,283,7.0,12.0,12,0.00,,,0.00,weatherlink.com 1.10,2013-05-26 04:46:00,
2013-05-25 22:01:00,81.0,24.0,29.77,SSE,147,3.0,11.0,12,0.00,,,0.00,weatherlink.com 1.10,2013-05-26 05:01:00,
2013-05-25 22:16:00,79.9,25.0,29.77,West,277,3.0,14.0,13,0.00,,,0.00,weatherlink.com 1.10,2013-05-26 05:16:00,
2013-05-25 22:31:00,78.9,24.0,29.78,WNW,287,2.0,5.0,13,0.00,,,0.00,weatherlink.com 1.10,2013-05-26 05:31:00,
2013-05-25 22:46:00,78.3,24.0,29.78,WSW,240,1.0,5.0,13,0.00,,,0.00,weatherlink.com 1.10,2013-05-26 05:46:00,
2013-05-25 23:01:00,78.4,24.0,29.78,WNW,289,2.0,8.0,13,0.00,,,0.00,weatherlink.com 1.10,2013-05-26 06:01:00,
2013-05-25 23:16:00,77.5,23.0,29.78,WNW,291,0.0,3.0,13,0.00,,,0.00,weatherlink.com 1.10,2013-05-26 06:16:00,
2013-05-25 23:31:00,77.0,22.0,29.79,West,268,0.0,2.0,13,0.00,,,0.00,weatherlink.com 1.10,2013-05-26 06:31:00,
2013-05-25 23:46:00,74.9,22.0,29.79,SSW,212,0.0,1.0,14,0.00,,,0.00,weatherlink.com 1.10,2013-05-26 06:46:00,